N0LTM Weather Reports


time (UTC)temp
F
wind
direction
speed
knots
gust
knots
rain 1hr
in
rain 24hr
in
rain mn
in
humidity
%
barometer
mb
20260504100555 46 0 0.0 0.0 0.00 0.00 0.00 74 1003.9
20260504081554 48 0 0.0 0.0 0.00 0.00 0.00 71 1004.2
20260504081058 48 0 0.0 0.0 0.00 0.00 0.00 71 1004.0
20260504080552 48 0 0.0 0.0 0.00 0.00 0.00 71 1004.0
20260504050554 54 0 0.0 5.2 0.00 0.00 0.00 64 1005.8
20260504045554 55 0 0.0 6.1 0.00 0.00 0.00 64 1005.8
20260504045054 55 217 0.9 4.3 0.00 0.00 0.00 64 1005.8
20260504044555 55 211 0.0 6.1 0.00 0.00 0.00 63 1005.7
20260504044053 55 0 1.7 6.1 0.00 0.00 0.00 63 1005.8
20260504043555 55 215 1.7 6.1 0.00 0.00 0.00 63 1005.8
20260504043100 55 0 0.9 6.1 0.00 0.00 0.00 63 1005.8
20260504042559 56 0 0.0 5.2 0.00 0.00 0.00 62 1005.8
20260504042051 56 0 0.0 5.2 0.00 0.00 0.00 61 1005.8
20260504041554 56 0 0.0 7.8 0.00 0.00 0.00 61 1005.8
20260504041054 57 208 1.7 7.8 0.00 0.00 0.00 60 1005.8
20260504040551 57 215 2.6 8.7 0.00 0.00 0.00 60 1005.8
20260504040056 57 221 3.5 8.7 0.00 0.00 0.00 59 1005.8
20260504035555 57 219 5.2 8.7 0.00 0.00 0.00 59 1005.8
20260504035055 57 232 3.5 7.8 0.00 0.00 0.00 59 1005.8
20260504034558 58 222 0.0 7.0 0.00 0.00 0.00 59 1005.8
20260504034055 58 204 3.5 7.8 0.00 0.00 0.00 58 1005.8
20260504033553 58 210 4.3 9.6 0.00 0.00 0.00 58 1005.8
20260504033059 58 198 5.2 9.6 0.00 0.00 0.00 58 1005.9
20260504032556 58 213 4.3 7.8 0.00 0.00 0.00 59 1005.8
20260504032055 58 220 4.3 8.7 0.00 0.00 0.00 58 1005.9
20260504031602 58 204 4.3 8.7 0.00 0.00 0.00 58 1005.9
20260504031051 58 204 4.3 7.8 0.00 0.00 0.00 58 1006.0
20260504030554 58 195 3.5 7.0 0.00 0.00 0.00 58 1006.0
20260504030056 58 210 2.6 7.8 0.00 0.00 0.00 58 1006.0
20260504025552 58 209 4.3 7.8 0.00 0.00 0.00 57 1006.0
20260504025055 59 209 3.5 7.0 0.00 0.00 0.00 56 1006.1
20260504024554 59 189 4.3 7.0 0.00 0.00 0.00 56 1006.1
20260504024055 59 207 4.3 7.8 0.00 0.00 0.00 56 1006.1
20260504023551 59 196 3.5 7.8 0.00 0.00 0.00 56 1006.1
20260504023053 59 202 2.6 6.1 0.00 0.00 0.00 55 1006.1
20260504022555 59 211 2.6 6.1 0.00 0.00 0.00 54 1006.0
20260504022056 59 205 3.5 6.1 0.00 0.00 0.00 54 1006.1
20260504021557 60 207 3.5 6.1 0.00 0.00 0.00 54 1006.0
20260504021056 60 196 3.5 6.1 0.00 0.00 0.00 53 1005.9
20260504020556 60 207 3.5 6.1 0.00 0.00 0.00 53 1005.9
20260504020131 60 200 3.5 7.0 0.00 0.00 0.00 52 1005.9
20260504015552 60 198 4.3 7.0 0.00 0.00 0.00 52 1005.8
20260504015052 60 223 3.5 7.0 0.00 0.00 0.00 51 1005.8
20260504014603 61 211 2.6 4.3 0.00 0.00 0.00 50 1005.8
20260504014054 61 198 1.7 5.2 0.00 0.00 0.00 49 1005.8
20260504013552 62 211 2.6 6.1 0.00 0.00 0.00 48 1005.8
20260504013115 62 209 2.6 6.1 0.00 0.00 0.00 48 1005.7
20260504012555 62 208 2.6 6.1 0.00 0.00 0.00 47 1005.6
20260504012055 62 223 2.6 5.2 0.00 0.00 0.00 47 1005.6
20260504011555 63 217 1.7 5.2 0.00 0.00 0.00 46 1005.5
20260504011055 63 221 2.6 5.2 0.00 0.00 0.00 45 1005.5
20260504010555 63 205 2.6 5.2 0.00 0.00 0.00 45 1005.5
20260504010055 64 209 1.7 5.2 0.00 0.00 0.00 44 1005.4
20260504005556 64 216 1.7 7.8 0.00 0.00 0.00 43 1005.3
20260504005109 64 217 2.6 7.8 0.00 0.00 0.00 43 1005.3
20260504004630 65 207 3.5 7.8 0.00 0.00 0.00 42 1005.3
20260504004053 65 202 3.5 7.8 0.00 0.00 0.00 42 1005.3
20260504003553 65 225 3.5 7.8 0.00 0.00 0.00 42 1005.4
20260504003059 65 217 3.5 9.6 0.00 0.00 0.00 42 1005.4
20260504002555 66 219 3.5 9.6 0.00 0.00 0.00 41 1005.4
20260504002055 66 224 2.6 7.0 0.00 0.00 0.00 42 1005.5
20260504001620 66 202 2.6 7.0 0.00 0.00 0.00 41 1005.4
20260504001058 66 226 2.6 9.6 0.00 0.00 0.00 41 1005.5
20260504000555 66 0 2.6 9.6 0.00 0.00 0.00 41 1005.5
20260503235556 67 227 1.7 12.2 0.00 0.00 0.00 41 1005.6
20260503235051 67 232 1.7 12.2 0.00 0.00 0.00 40 1005.5
20260503234604 67 219 1.7 14.8 0.00 0.00 0.00 40 1005.5
20260503234052 67 234 1.7 14.8 0.00 0.00 0.00 40 1005.6
20260503233553 67 222 1.7 14.8 0.00 0.00 0.00 39 1005.5
20260503233101 67 295 3.5 14.8 0.00 0.00 0.00 39 1005.5
20260503232553 67 319 3.5 12.2 0.00 0.00 0.00 38 1005.6
20260503232053 68 288 2.6 12.2 0.00 0.00 0.00 38 1005.6
20260503231553 68 230 3.5 10.4 0.00 0.00 0.00 37 1005.6
20260503231053 68 338 2.6 10.4 0.00 0.00 0.00 38 1005.7
20260503230555 68 224 1.7 12.2 0.00 0.00 0.00 38 1005.7
20260503230110 68 232 1.7 12.2 0.00 0.00 0.00 39 1005.7
20260503225552 68 227 2.6 11.3 0.00 0.00 0.00 37 1005.8
20260503225053 68 261 3.5 11.3 0.00 0.00 0.00 37 1005.8
20260503224604 68 243 2.6 9.6 0.00 0.00 0.00 38 1005.9
20260503224053 68 236 2.6 7.8 0.00 0.00 0.00 37 1005.9
20260503223556 68 5 1.7 11.3 0.00 0.00 0.00 38 1005.9
20260503223053 68 283 3.5 11.3 0.00 0.00 0.00 38 1005.8
20260503222556 68 225 1.7 12.2 0.00 0.00 0.00 38 1005.9
20260503222052 68 233 1.7 15.6 0.00 0.00 0.00 37 1005.9
20260503221604 68 265 2.6 15.6 0.00 0.00 0.00 36 1005.8
20260503221052 68 237 5.2 16.5 0.00 0.00 0.00 35 1005.9
20260503220552 68 232 6.1 16.5 0.00 0.00 0.00 36 1005.7
20260503220059 68 229 5.2 14.8 0.00 0.00 0.00 37 1005.8
20260503215552 68 229 4.3 13.9 0.00 0.00 0.00 37 1005.9
20260503215053 68 335 3.5 16.5 0.00 0.00 0.00 37 1006.0
20260503214558 68 228 7.0 16.5 0.00 0.00 0.00 38 1006.0
20260503214053 68 232 11.3 19.1 0.00 0.00 0.00 36 1005.9
20260503213555 68 225 10.4 19.1 0.00 0.00 0.00 35 1006.0
20260503213059 68 186 8.7 19.1 0.00 0.00 0.00 37 1006.0
20260503212553 67 213 13.9 19.1 0.00 0.00 0.00 36 1006.1
20260503212053 68 211 9.6 18.2 0.00 0.00 0.00 35 1006.1
20260503211556 68 208 12.2 22.6 0.00 0.00 0.00 36 1006.2
20260503211054 67 233 13.0 22.6 0.00 0.00 0.00 36 1006.3
20260503210552 67 219 11.3 20.9 0.00 0.00 0.00 36 1006.4
20260503210056 67 225 13.9 22.6 0.00 0.00 0.00 35 1006.6
20260503205552 67 230 12.2 22.6 0.00 0.00 0.00 36 1006.6
20260503205053 66 229 14.8 22.6 0.00 0.00 0.00 37 1006.7
20260503204559 66 224 13.0 20.0 0.00 0.00 0.00 36 1006.9
20260503204053 67 235 9.6 20.0 0.00 0.00 0.00 37 1007.2
20260503203552 66 223 8.7 20.0 0.00 0.00 0.00 38 1007.2
20260503203112 66 227 10.4 21.7 0.00 0.00 0.00 36 1007.4
20260503202552 66 219 9.6 25.2 0.00 0.00 0.00 37 1007.6
20260503202053 66 224 14.8 25.2 0.00 0.00 0.00 35 1007.5
20260503201554 66 198 14.8 23.5 0.00 0.00 0.00 36 1007.6
20260503201052 66 219 11.3 23.5 0.00 0.00 0.00 37 1007.8
20260503200553 65 220 13.9 23.5 0.00 0.00 0.00 35 1007.9
20260503200053 65 270 10.4 22.6 0.00 0.00 0.00 36 1007.9
20260503195552 65 226 11.3 21.7 0.00 0.00 0.00 37 1008.0
20260503195052 65 237 7.0 20.0 0.00 0.00 0.00 39 1008.2
20260503194557 64 240 11.3 20.0 0.00 0.00 0.00 38 1008.0
20260503194053 63 246 12.2 21.7 0.00 0.00 0.00 42 1008.1
20260503193553 64 211 10.4 21.7 0.00 0.00 0.00 42 1008.1
20260503193055 63 213 13.0 26.1 0.00 0.00 0.00 46 1008.3
20260503192552 63 207 13.9 26.9 0.00 0.00 0.00 46 1008.6
20260503192052 62 196 14.8 26.9 0.00 0.00 0.00 44 1008.6
20260503191556 62 227 13.0 22.6 0.00 0.00 0.00 46 1008.7
20260503191052 62 188 14.8 24.3 0.00 0.00 0.00 48 1008.8
20260503190552 62 176 15.6 24.3 0.00 0.00 0.00 47 1008.8
20260503190108 61 191 14.8 20.9 0.00 0.00 0.00 48 1008.8
20260503185553 61 227 11.3 21.7 0.00 0.00 0.00 48 1008.7
20260503185052 60 242 13.9 26.1 0.00 0.00 0.00 47 1008.6
20260503184553 60 202 14.8 26.1 0.00 0.00 0.00 48 1008.5
20260503184053 60 178 14.8 23.5 0.00 0.00 0.00 47 1008.6
20260503183553 60 205 16.5 23.5 0.00 0.00 0.00 47 1008.8
20260503183053 60 169 15.6 25.2 0.00 0.00 0.00 47 1008.9
20260503182552 60 216 13.0 25.2 0.00 0.00 0.00 46 1009.0
20260503182052 60 175 14.8 25.2 0.00 0.00 0.00 44 1009.0
20260503181559 59 202 15.6 25.2 0.00 0.00 0.00 46 1009.1
20260503181053 59 179 13.0 23.5 0.00 0.00 0.00 48 1009.4
20260503180554 59 218 13.9 24.3 0.00 0.00 0.00 48 1009.6
20260503180057 59 191 14.8 24.3 0.00 0.00 0.00 47 1009.6
20260503175553 59 209 13.9 22.6 0.00 0.00 0.00 48 1009.8
20260503175052 59 157 13.9 22.6 0.00 0.00 0.00 48 1009.9
20260503174600 59 199 12.2 21.7 0.00 0.00 0.00 50 1009.8
20260503174052 58 188 13.0 21.7 0.00 0.00 0.00 48 1009.8
20260503173552 58 166 13.0 20.9 0.00 0.00 0.00 52 1009.9
20260503173054 57 207 13.0 20.0 0.00 0.00 0.00 54 1010.0
20260503172553 57 167 13.0 22.6 0.00 0.00 0.00 56 1010.2
20260503172053 57 194 10.4 22.6 0.00 0.00 0.00 56 1010.3
20260503171553 57 161 9.6 24.3 0.00 0.00 0.00 56 1010.5
20260503171057 57 175 13.9 24.3 0.00 0.00 0.00 57 1010.7
20260503170553 56 180 11.3 23.5 0.00 0.00 0.00 60 1010.8
20260503150555 52 223 10.4 22.6 0.00 0.00 0.00 60 1013.5
20260503131052 48 223 4.3 12.2 0.00 0.00 0.00 61 1013.9
20260503130556 48 203 6.1 13.0 0.00 0.00 0.00 60 1013.9
20260503110555 45 217 7.0 13.0 0.00 0.00 0.00 62 1013.4